Tracking 25934 objects as of 10-Aug-2022
HD Live streaming from Space Station
objects crossing your sky now

NINGXIA-1 9

Track NINGXIA-1 9 now!
10-day predictions


NORAD ID: 49021
Int'l Code: 2021-064D
Perigee: 866.4 km
Apogee: 879.8 km
Inclination: 45.0 °
Period: 102.3 minutes
Semi major axis: 7244 km
RCS: Unknown
Launch date: July 9, 2021
Source: People's Republic of China (PRC)
Launch site: Taiyaun Space Center, China (TSC)
aabbcc
Your satellite tracking list
Your tracking list is empty




NASA's NSSDC Master Catalog

Two Line Element Set (TLE):
1 49021U 21064D   22222.48497001 -.00000103  00000-0  17083-4 0  9990
2 49021  45.0040  99.3960 0009256 359.9055   0.1768 14.08083123 55951
Source of the keplerian elements: AFSPC